Pagrindinis puslapis
METAR-TAF:

METAR-TAF

Oro uostai :

Arasatuba, San Paulas, Brazilija

platuma: 21-08-39S, ilguma: 050-25-35W, Aukštis: 415 m

Dabartinis oras

Ataskaita buvo paskelbta 11 valandos ir 25 minutes, ne 19:00 UTC
Vėjas 4 kt iš Vakarų/Pietvakarių
Temperatūra 25°C
Drėgmė 50%
Slėgis 1018 hPa
Matomumas 10 km arba daugiau
nėra debesų žemiau 1500 m ir nėra kamuolinių lietaus debesų

METAR: SBAU 071900Z 24004KT CAVOK 25/14 Q1018

Laikas: 03:25 (06:25 UTC)


TAF: trūkstamas

Orai ataskaitas ir orų prognozės (METAR, TAF).

turimą stotys yra geltonos ir raudonos taškus žemėlapyje.

Perkelti pele per norėdami pamatyti stoties vardą.

Tada spustelėkite, norėdami matyti oro stebėjimo ir prognozės.

Norėdami pakeisti žemėlapį: spustelėkite ant žalios mygtukų su juodo kryžiaus žemyn,; žalią mygtuką su brūkšneliu, jei norite nutolinti; arba žalių rodyklių gretimoms žemėlapius.


METAR-TAF: